Regional Weather Roundup
Issued by NWS

Home | Current Version | Previous Version | Graphics & Text | Print | Product List | Glossary On
Versions: 1 2 3 4 5 6 7 8 9 10 11 12 13 14 15 16 17 18 19 20 21 22 23 24 25 26 27 28 29 30 31 32 33 34 35 36 37 38 39 40 41 42 43 44 45 46 47 48 49 50
000
ASUS45 KSLC 110410
RWRUT

UTAH REGIONAL WEATHER ROUNDUP
NATIONAL WEATHER SERVICE SALT LAKE CITY UT
900 PM MST SAT DEC 10 2016

UTZ001>011-023>025-110500-

NORTHERN UTAH

CITY           SKY/WX    TMP DP  RH WIND       PRES   REMARKS
BRIGHAM CITY     N/A     37  34  90 SE5       29.92R WCI  33
HILL AFB       LGT SNOW  32  32 100 S3        29.92R FOG
LOGAN          LGT RAIN  39  33  79 SW5       29.89R
OGDEN          LGT RAIN  36  34  92 N3        29.92R
SALT LAKE CITY RAIN      37  34  89 N5        29.93R WCI  33
WENDOVER       CLOUDY    37  36  93 CALM      29.92S
HEBER CITY     MIX PCPN  34  32  93 E6        29.85R WCI  29

$$

UTZ011>015-024>027-110500-

CENTRAL/NORTHEAST UTAH

CITY           SKY/WX    TMP DP  RH WIND       PRES   REMARKS
PROVO AIRPORT  LGT RAIN  36  34  92 NW22      29.89R WCI  25
MOAB/CANYONLAN PTCLDY    25  15  66 NW6       29.90F WCI  18
DELTA          CLOUDY    48  34  57 SW23G29   29.86R
PRICE          CLOUDY    31  23  72 E3        29.91S
RICHFIELD      CLOUDY    54  32  43 SW18      29.88R
ROOSEVELT      CLOUDY    32  27  80 CALM      29.88S
VERNAL         FLURRIES  32  26  78 NW5       29.87R WCI  27

$$

UTZ013>016-019>022-027-110500-

SOUTHERN UTAH

CITY           SKY/WX    TMP DP  RH WIND       PRES   REMARKS
BRYCE CANYON   NOT AVBL
CEDAR CITY     CLOUDY    45  34  65 SW20G28   29.97S
MILFORD        MOCLDY    46  35  65 SW33G43   29.91F
ST GEORGE      CLOUDY    48  34  57 CALM      30.03F
HANKSVILLE     PTCLDY    30  16  55 N7        29.93S WCI  23
KANAB          CLOUDY    45  36  70 SE6       30.08F
BLANDING       MOCLDY    34  25  70 CALM      30.08S

$$

REGIONAL REPORTS     COLORADO/ARIZONA

CITY           SKY/WX    TMP DP  RH WIND       PRES   REMARKS
CRAIG, CO      LGT SNOW  36  29  75 NW6       29.83S WCI  31
GRAND JUNCTION CLOUDY    31  25  78 E5        29.89F WCI  26
RIFLE, CO      CLOUDY    31  26  82 W3        29.90F
MONTROSE, CO   CLOUDY    35  27  72 N3        29.95F
CORTEZ, CO     CLOUDY    29  25  85 E3        30.03F
COLORADO CITY  CLOUDY    41  36  81 SE3       30.08S
PAGE, AZ       CLOUDY    42  25  50 SW3       30.02S
GRAND CANYON   CLOUDY    36  34  92 CALM      30.14R
KINGMAN, AZ    CLOUDY    52  37  56 SE3       30.05S
FLAGSTAFF, AZ  PTCLDY    35  29  78 CALM      30.16R

$$

REGIONAL REPORTS    NEVADA/IDAHO/WYOMING

CITY           SKY/WX    TMP DP  RH WIND       PRES   REMARKS
LAS VEGAS, NV  MOCLDY    52  24  33 S3        29.99S
ELY, NY        CLOUDY    43  33  68 S14       29.91F
ELKO, NV       CLOUDY    33  31  92 W5        29.93S WCI  29
POCATELLO, ID  CLOUDY    35  32  88 SW15      29.84R WCI  25
BURLEY, ID     CLOUDY    35  32  88 SW10      29.87R WCI  27
FORT BRIDGER,  SNOW      32  32 100 W7        29.88S VSB 1/2 WCI  26
EVANSTON, WY   LGT SNOW  30  28  92 SW10      29.86S VSB 3/4 WCI  21
ROCK SPRINGS,  SNOW      31  30  96 SW17      29.82S VSB 1/2 WCI  19
KEMMERER, WY   LGT SNOW  28  28 100 W20G25    29.83S WCI  15

$$



USA.gov is the U.S. government's official web portal to all federal, state and local government web resources and services.